Location: Blanot
(47.1713°N, 4.2340°E)
Time: 20:20:34
(UTC+00:00)

COSMOS 2406 - Pass Details

Date: 14 July 2020
Orbit: 844 x 862 km, 71.0° (Epoch: 14 August)

Event Time Altitude Azimuth Distance (km) Brightness Sun altitude
Exits shadow 02:31:39 13° 242° (WSW) 2,262 4.9 -12.1°
Maximum altitude 02:36:17 38° 307° (NW) 1,289 4.2 -11.6°
Drops below altitude 10° 02:41:39 10° 15° (NNE) 2,509 6.8 -11.0°
Sets 02:44:18 0° 24° (NNE) 3,447 8.0 -10.7°
